| time (UTC) | temp F | wind direction | speed knots | gust knots | rain 1hr in | rain 24hr in | rain mn in | humidity % | barometer mb |
| 20260509044513 | 40 | 34 | 0.9 | 2.6 | 0.00 | 0.00 | 0.00 | 88 | 1024.0 |
| 20260509043513 | 36 | 24 | 0.0 | 1.7 | 0.00 | 0.00 | 0.00 | 89 | 1024.0 |
| 20260509041513 | 33 | 22 | 0.0 | 1.7 | 0.00 | 0.00 | 0.00 | 90 | 1023.9 |
| 20260509031513 | 31 | 15 | 0.0 | 0.9 | 0.00 | 0.00 | 0.00 | 88 | 1024.1 |
| 20260509030513 | 31 | 15 | 0.0 | 0.9 | 0.00 | 0.00 | 0.00 | 87 | 1024.0 |
| 20260509022513 | 36 | 29 | 0.0 | 2.6 | 0.00 | 0.00 | 0.00 | 84 | 1024.1 |
| 20260509014514 | 35 | 34 | 2.6 | 4.3 | 0.00 | 0.00 | 0.00 | 85 | 1024.4 |
| 20260509013513 | 35 | 88 | 1.7 | 2.6 | 0.00 | 0.00 | 0.00 | 84 | 1024.4 |
| 20260509010513 | 36 | 88 | 0.9 | 1.7 | 0.00 | 0.00 | 0.00 | 82 | 1024.4 |
| 20260509002513 | 37 | 91 | 1.7 | 2.6 | 0.00 | 0.00 | 0.00 | 78 | 1024.6 |
| 20260509000513 | 38 | 105 | 1.7 | 2.6 | 0.00 | 0.00 | 0.00 | 74 | 1024.7 |
| 20260508232513 | 43 | 105 | 2.6 | 4.3 | 0.00 | 0.00 | 0.00 | 63 | 1024.9 |
| 20260508231513 | 43 | 113 | 2.6 | 4.3 | 0.00 | 0.00 | 0.00 | 62 | 1024.9 |
| 20260508224514 | 42 | 96 | 2.6 | 4.3 | 0.00 | 0.00 | 0.00 | 72 | 1024.8 |
| 20260508222513 | 42 | 74 | 1.7 | 5.2 | 0.00 | 0.00 | 0.00 | 74 | 1024.7 |
| 20260508215513 | 42 | 49 | 2.6 | 5.2 | 0.00 | 0.00 | 0.00 | 79 | 1024.6 |
| 20260508212513 | 43 | 41 | 2.6 | 5.2 | 0.00 | 0.00 | 0.00 | 77 | 1024.5 |
| 20260508211514 | 43 | 140 | 1.7 | 2.6 | 0.00 | 0.00 | 0.00 | 76 | 1024.4 |
| 20260508210514 | 44 | 145 | 0.0 | 1.7 | 0.00 | 0.00 | 0.00 | 74 | 1024.3 |
| 20260508204513 | 46 | 146 | 0.9 | 1.7 | 0.00 | 0.00 | 0.00 | 70 | 1024.2 |
| 20260508195514 | 51 | 195 | 0.0 | 4.3 | 0.00 | 0.00 | 0.00 | 60 | 1023.8 |
| 20260508193514 | 52 | 164 | 1.7 | 5.2 | 0.00 | 0.00 | 0.00 | 57 | 1023.6 |
| 20260508191513 | 52 | 160 | 0.9 | 5.2 | 0.00 | 0.00 | 0.00 | 60 | 1023.5 |
| 20260508190514 | 53 | 171 | 2.6 | 6.1 | 0.00 | 0.00 | 0.00 | 60 | 1023.4 |
| 20260508185513 | 53 | 183 | 0.9 | 5.2 | 0.00 | 0.00 | 0.00 | 58 | 1023.4 |
| 20260508184513 | 54 | 167 | 2.6 | 5.2 | 0.00 | 0.00 | 0.00 | 57 | 1023.2 |
| 20260508182513 | 55 | 180 | 3.5 | 7.0 | 0.00 | 0.00 | 0.00 | 54 | 1023.0 |
| 20260508175514 | 58 | 187 | 2.6 | 6.1 | 0.00 | 0.00 | 0.00 | 48 | 1022.8 |
| 20260508173513 | 58 | 213 | 6.1 | 10.4 | 0.00 | 0.00 | 0.00 | 43 | 1022.6 |
| 20260508172513 | 58 | 114 | 7.0 | 11.3 | 0.00 | 0.00 | 0.00 | 41 | 1022.7 |
| 20260508171514 | 58 | 120 | 5.2 | 13.0 | 0.00 | 0.00 | 0.00 | 37 | 1022.5 |
| 20260508170513 | 58 | 125 | 7.8 | 13.9 | 0.00 | 0.00 | 0.00 | 38 | 1022.5 |
| 20260508165514 | 59 | 133 | 6.1 | 12.2 | 0.00 | 0.00 | 0.00 | 40 | 1022.5 |
| 20260508164515 | 59 | 115 | 7.0 | 13.0 | 0.00 | 0.00 | 0.00 | 34 | 1022.5 |
| 20260508162514 | 60 | 129 | 5.2 | 12.2 | 0.00 | 0.00 | 0.00 | 32 | 1022.5 |
| 20260508161514 | 60 | 172 | 6.1 | 12.2 | 0.00 | 0.00 | 0.00 | 35 | 1022.4 |
| 20260508160514 | 60 | 141 | 6.1 | 13.9 | 0.00 | 0.00 | 0.00 | 32 | 1022.4 |
| 20260508154514 | 60 | 114 | 9.6 | 12.2 | 0.00 | 0.00 | 0.00 | 31 | 1022.4 |
| 20260508152514 | 61 | 85 | 7.8 | 14.8 | 0.00 | 0.00 | 0.00 | 27 | 1022.4 |
| 20260508151514 | 60 | 87 | 10.4 | 14.8 | 0.00 | 0.00 | 0.00 | 27 | 1022.6 |
| 20260508145513 | 61 | 132 | 7.0 | 13.9 | 0.00 | 0.00 | 0.00 | 28 | 1022.6 |
| 20260508141516 | 62 | 124 | 6.1 | 14.8 | 0.00 | 0.00 | 0.00 | 30 | 1022.7 |
| 20260508135514 | 62 | 125 | 7.0 | 13.0 | 0.00 | 0.00 | 0.00 | 34 | 1022.9 |
| 20260508133514 | 62 | 99 | 6.1 | 13.9 | 0.00 | 0.00 | 0.00 | 34 | 1022.9 |
| 20260508132514 | 62 | 97 | 7.0 | 13.9 | 0.00 | 0.00 | 0.00 | 34 | 1022.9 |
| 20260508130513 | 64 | 128 | 5.2 | 12.2 | 0.00 | 0.00 | 0.00 | 39 | 1023.0 |
| 20260508122513 | 63 | 131 | 3.5 | 8.7 | 0.00 | 0.00 | 0.00 | 39 | 1023.0 |
| 20260508121514 | 62 | 141 | 6.1 | 11.3 | 0.00 | 0.00 | 0.00 | 36 | 1023.1 |
| 20260508113515 | 62 | 173 | 5.2 | 10.4 | 0.00 | 0.00 | 0.00 | 37 | 1023.1 |
| 20260508111513 | 62 | 148 | 5.2 | 11.3 | 0.00 | 0.00 | 0.00 | 38 | 1023.2 |
| 20260508103513 | 62 | 144 | 6.1 | 10.4 | 0.00 | 0.00 | 0.00 | 43 | 1023.1 |
| 20260508100513 | 63 | 140 | 4.3 | 7.8 | 0.00 | 0.00 | 0.00 | 50 | 1023.1 |
| 20260508095513 | 62 | 153 | 4.3 | 8.7 | 0.00 | 0.00 | 0.00 | 52 | 1023.1 |
| 20260508094514 | 62 | 172 | 3.5 | 8.7 | 0.00 | 0.00 | 0.00 | 53 | 1023.1 |
| 20260508093513 | 62 | 151 | 2.6 | 8.7 | 0.00 | 0.00 | 0.00 | 52 | 1023.1 |
| 20260508090513 | 61 | 176 | 3.5 | 7.8 | 0.00 | 0.00 | 0.00 | 56 | 1023.1 |
| 20260508085513 | 61 | 158 | 4.3 | 7.8 | 0.00 | 0.00 | 0.00 | 53 | 1023.1 |
| 20260508084513 | 60 | 141 | 4.3 | 8.7 | 0.00 | 0.00 | 0.00 | 55 | 1023.1 |
| 20260508083514 | 60 | 136 | 2.6 | 8.7 | 0.00 | 0.00 | 0.00 | 56 | 1023.0 |
| 20260508081514 | 58 | 110 | 4.3 | 7.0 | 0.00 | 0.00 | 0.00 | 63 | 1023.0 |
| 20260508063513 | 57 | 77 | 3.5 | 5.2 | 0.00 | 0.00 | 0.00 | 71 | 1022.0 |
| 20260508050513 | 45 | 53 | 0.0 | 0.0 | 0.00 | 0.00 | 0.00 | 94 | 1021.7 |